C/2022 J1 ( Maury-Attard )

Japanese version
Home page
Updated on September 29, 2022

---------------------------------------------------------------------

* Profile

Discovery Date May 5, 2022
Magnitude 17.6 mag
Discoverer Georges Attard and Alain Maury (San Pedro de Atacama, Chile)

* Pictures

* Orbital Elements

Epoch 2022 Aug. 9.0 TT = JDT 2459800.5
T 2022 Feb. 19.04571 TT                                 Rudenko
q   1.6042320            (2000.0)            P               Q
z  +0.0209909      Peri.  305.66054     +0.32757469     -0.00604171
 +/-0.0000003      Node   280.72301     -0.17669103     -0.98272980
e   0.9663257      Incl.  105.93010     -0.92815683     +0.18494765
From 164 observations 2022 May 5-Aug. 19, mean residual 0".5.

* Magnitudes Graph

        m1 = 14.0 + 5 log d + 10.0 log r

---------------------------------------------------------------------

The orbital elements are published on M.P.E.C. 2022-Q139.
The magnitudes graphs are made with Comet for Windows.

---------------------------------------------------------------------

Copyright(C) Seiichi Yoshida (comet@aerith.net). All rights reserved.